Wind_Speed
49 50 48 47 45 44 43 40 42 44 45 48 50 51 53 55 56 58 61 63 65 69 71 72 73 72 72 70 69 68 66 65 64 68 64 63 62 60 59 59 60 61 62
54 53 53 54 53 53 49 47 45 46 48 49 49 51 53 55 58 59 61 64 65 70 73 72 74 75 74 73 72 71 70 68 66 68 68 66 65 64 63 62 64 65 66
60 58 58 57 57 58 58 56 54 52 52 51 53 54 56 58 61 63 64 65 68 71 74 76 77 77 76 77 77 75 75 74 71 68 71 70 70 69 68 68 68 69 69
68 66 64 63 62 61 61 63 63 61 61 59 59 59 60 61 64 67 68 69 71 73 76 78 80 82 82 81 79 78 77 77 76 73 72 75 76 75 74 73 74 73 73
76 74 71 69 68 67 66 66 66 68 68 67 67 67 66 65 68 72 74 75 75 76 78 81 82 83 84 86 86 85 82 81 81 79 77 78 79 79 79 81 78 80 75
84 82 79 77 76 74 73 72 72 71 71 72 73 72 73 73 72 75 77 81 81 81 82 84 87 87 89 89 90 91 90 88 86 85 83 81 81 83 84 85 85 83 79
90 89 87 85 83 81 81 80 78 78 78 77 77 78 79 79 79 80 81 85 88 88 88 88 89 91 92 93 94 94 94 93 92 91 87 86 86 88 89 89 89 89 87
94 94 93 93 92 90 88 87 86 85 84 84 84 83 83 85 85 84 86 86 90 93 94 95 95 96 96 96 97 98 97 97 96 96 94 93 93 92 93 94 95 94 92
98 99 99 99 98 97 96 94 93 91 91 91 90 90 89 89 89 89 90 89 91 94 98 100 102 102 103 103 102 102 102 101 101 100 99 99 99 99 99 99 99 100 96
103 103 103 104 103 102 102 101 101 99 98 97 97 96 95 95 96 94 93 94 95 95 97 99 104 108 110 110 108 109 108 108 110 108 106 104 103 103 105 105 104 104 103
104 106 107 107 107 107 106 106 105 105 104 104 103 102 102 102 101 101 102 101 99 99 99 101 102 105 108 112 115 115 115 117 116 115 113 113 112 111 110 110 110 109 108
104 106 109 111 111 111 111 111 110 109 109 109 109 109 109 108 108 108 108 107 106 105 105 105 106 107 107 107 109 113 117 119 120 122 122 121 122 121 122 121 119 116 115
106 108 109 111 114 116 117 117 117 116 115 114 113 114 114 115 115 114 114 115 115 113 111 112 112 112 112 112 113 113 114 114 114 115 117 119 121 123 125 126 126 125 122
106 108 111 113 114 117 119 120 122 122 121 120 120 119 119 120 120 120 120 119 119 118 118 118 117 117 118 119 119 119 118 117 117 115 115 115 116 116 117 119 119 120 119
101 105 109 114 116 117 119 121 123 125 126 127 126 125 124 125 125 125 125 126 125 124 124 121 120 120 121 123 124 124 125 125 124 123 121 120 119 119 118 119 118 118 116
95 100 103 107 111 116 119 122 122 124 127 129 130 130 131 131 130 130 130 130 130 131 131 130 129 127 126 126 127 128 129 129 129 128 127 125 125 124 124 124 124 124 122
94 96 99 103 106 111 114 117 121 125 127 127 128 130 133 134 134 136 137 137 136 136 137 138 137 136 135 132 131 131 133 135 134 133 132 130 130 129 128 128 128 128 126
90 94 96 99 102 105 108 111 114 117 121 125 128 129 130 131 133 136 138 140 141 142 143 143 144 143 142 142 141 139 137 137 137 137 136 135 135 134 134 133 132 131 130
83 86 89 92 96 99 101 103 104 107 108 111 115 118 123 127 131 134 135 136 138 141 143 146 148 148 147 146 147 147 146 145 144 143 142 141 141 141 139 137 136 135 134
74 77 80 85 88 91 94 97 100 103 105 107 109 111 112 113 116 118 122 127 132 136 140 142 144 145 146 147 148 149 149 149 149 149 148 147 146 146 144 143 143 142 141
68 70 73 76 80 83 87 90 94 97 99 102 103 105 107 108 109 110 112 114 115 118 122 126 130 134 137 140 141 143 144 144 145 146 149 151 151 150 149 147 146 146 145
63 66 68 71 73 76 78 81 84 86 89 92 94 96 98 100 101 101 103 104 106 107 108 110 113 115 119 122 125 128 131 132 133 135 137 140 142 144 145 146 148 147 145
59 61 63 66 68 71 74 77 80 83 85 88 90 91 92 94 95 96 97 98 99 100 99 99 100 101 102 103 105 107 111 114 117 120 122 125 127 131 132 134 137 139 141
56 58 61 64 67 69 72 74 76 78 80 81 83 85 86 87 87 87 88 89 90 90 90 92 92 92 93 94 94 96 98 99 100 103 106 109 113 116 118 122 124 126 127
54 56 58 60 62 64 66 68 70 72 73 74 75 76 76 77 78 79 79 81 82 83 84 84 85 86 87 87 87 87 87 87 88 91 94 97 101 103 105 108 112 113 115
52 55 58 60 62 63 63 65 65 65 66 67 69 69 70 72 72 71 71 72 73 75 75 76 77 78 79 81 81 82 81 81 80 82 84 86 89 92 95 97 98 99 103
Wind_Direction
255 251 247 247 249 249 247 249 247 246 247 247 244 243 243 239 236 236 235 235 234 234 234 235 237 237 239 241 243 245 247 249 252 256 257 259 262 263 265 268 270 272 274
253 254 252 249 248 248 248 247 247 248 247 247 245 245 246 243 239 238 238 238 238 236 235 236 239 240 243 245 246 248 249 251 252 257 260 261 261 263 265 266 268 271 272
252 252 252 252 251 249 249 248 246 246 247 247 248 247 246 245 242 239 239 239 239 239 239 238 240 241 242 244 246 248 250 252 253 254 259 260 261 262 264 267 268 269 270
252 252 251 250 250 249 249 248 248 247 246 247 248 248 248 247 244 242 241 241 241 241 240 240 242 243 244 246 247 248 250 252 252 254 256 261 263 265 265 265 265 268 270
251 251 251 251 251 250 249 250 250 248 248 248 247 247 247 247 246 244 244 242 242 243 243 243 244 245 245 246 247 248 251 253 255 257 258 260 263 264 265 265 267 267 269
251 250 250 250 250 250 250 249 248 249 249 248 248 248 247 247 247 246 245 243 244 244 245 245 245 246 247 248 248 250 252 254 256 257 257 258 260 262 264 265 266 268 269
250 250 250 250 250 249 249 249 248 248 248 249 248 248 247 247 246 246 245 244 244 245 246 246 246 246 248 249 251 251 253 255 256 257 257 258 258 259 261 264 267 268 270
249 250 250 249 249 250 249 249 249 249 248 248 249 248 248 248 247 247 246 246 245 245 246 246 247 248 249 250 251 253 253 255 255 256 257 258 258 260 262 263 265 268 269
248 247 248 248 248 249 249 249 249 248 249 249 248 249 249 249 249 248 248 248 247 248 247 247 246 248 250 251 252 253 255 255 255 256 257 258 259 261 262 263 265 266 268
247 248 248 248 248 248 248 249 250 250 249 249 249 249 249 249 250 250 250 249 249 249 250 249 250 250 249 250 251 252 254 255 256 256 257 258 259 260 262 263 264 266 266
247 247 248 248 248 249 249 249 249 250 250 251 250 250 250 250 250 250 250 250 250 250 250 251 251 252 251 252 253 253 253 254 255 256 258 259 260 261 261 262 263 265 267
248 248 247 247 248 249 249 249 249 249 249 250 251 251 252 252 251 251 252 252 251 250 250 251 252 253 253 253 254 254 255 255 255 257 258 259 260 261 262 262 264 265 266
248 249 248 247 247 248 249 249 249 249 249 249 250 250 251 251 252 253 252 252 252 252 251 251 251 252 253 254 254 255 255 256 257 258 259 260 261 261 262 264 264 265 266
250 249 248 249 249 248 248 249 250 251 251 250 250 249 250 251 252 252 252 253 253 253 253 253 253 253 253 254 255 256 256 257 257 258 258 259 260 261 262 264 265 266 267
252 251 251 250 250 250 250 250 249 249 250 251 252 252 251 251 251 252 252 253 253 253 253 253 253 253 254 255 255 256 257 258 258 258 259 259 260 261 262 263 265 266 267
252 251 251 251 252 252 251 252 252 252 252 251 251 252 252 253 253 253 253 253 253 254 255 255 255 255 255 256 256 256 257 257 258 259 259 260 260 261 262 263 264 265 266
253 252 252 252 252 252 252 252 252 253 253 253 253 253 254 254 253 253 254 254 254 253 254 255 256 257 257 257 256 256 257 258 258 259 259 260 261 261 262 262 263 264 265
256 255 255 255 255 255 255 255 255 255 254 255 256 256 256 256 255 255 255 255 255 255 255 255 256 257 258 259 259 258 258 258 259 259 259 259 260 261 262 263 264 265 266
257 257 256 256 256 257 257 258 258 258 258 258 257 257 257 257 257 257 257 258 258 257 257 257 258 258 259 259 259 260 260 260 259 259 259 259 260 260 261 262 263 264 265
256 256 256 256 256 256 257 258 259 260 260 260 260 261 260 260 259 258 258 258 258 259 259 259 259 259 259 259 259 260 260 261 261 261 261 260 260 260 260 261 261 261 261
258 258 257 257 258 258 258 259 260 261 261 262 262 262 263 263 263 262 262 261 260 259 259 259 260 260 261 261 261 261 261 260 261 261 261 260 261 261 261 261 261 260 260
263 263 263 263 263 263 263 263 263 263 264 264 264 264 264 265 265 265 265 265 264 263 262 262 261 260 260 260 260 261 261 262 261 261 261 260 260 260 261 261 261 261 261
264 265 266 267 267 267 267 266 266 266 266 266 267 268 268 267 267 267 267 268 268 268 268 267 265 264 263 262 261 261 261 260 260 260 260 260 259 260 260 260 260 261 261
268 267 266 266 267 267 268 269 269 269 269 270 270 270 271 272 272 272 271 271 270 269 268 268 268 266 265 264 263 262 261 260 259 259 259 259 258 258 258 258 259 259 260
275 275 276 275 274 273 273 273 273 274 274 275 275 274 274 274 273 272 271 270 270 270 269 268 268 268 267 266 265 264 262 261 260 259 259 258 258 257 257 257 257 257 258
277 277 277 278 279 280 280 280 280 279 279 278 277 277 276 276 275 274 273 271 271 270 270 269 268 267 266 266 266 265 264 262 260 259 258 257 257 257 258 257 257 257 257
Height
10674 10676 10678 10679 10680 10682 10684 10686 10687 10689 10691 10695 10698 10700 10703 10706 10711 10715 10718 10723 10728 10733 10739 10743 10746 10749 10753 10758 10762 10766 10770 10774 10777 10769 10776 10778 10780 10782 10782 10783 10783 10781 10780
10658 10661 10663 10665 10667 10668 10670 10673 10676 10677 10679 10681 10684 10686 10689 10693 10697 10701 10705 10711 10715 10719 10723 10729 10732 10737 10741 10744 10748 10751 10754 10757 10763 10758 10759 10763 10765 10765 10767 10768 10767 10766 10763
10640 10643 10646 10649 10652 10654 10656 10658 10660 10663 10665 10667 10669 10672 10674 10678 10682 10686 10690 10694 10699 10703 10707 10712 10714 10719 10723 10725 10729 10734 10737 10740 10746 10749 10741 10743 10745 10748 10750 10751 10750 10748 10747
10619 10623 10626 10629 10632 10636 10638 10640 10643 10646 10649 10652 10654 10656 10659 10662 10665 10670 10674 10678 10682 10685 10689 10693 10696 10701 10705 10708 10712 10716 10718 10722 10725 10731 10732 10726 10726 10727 10732 10732 10730 10730 10731
10599 10602 10606 10609 10613 10616 10619 10622 10625 10627 10630 10633 10636 10638 10641 10644 10647 10651 10655 10659 10663 10666 10670 10674 10678 10681 10685 10688 10692 10695 10698 10703 10706 10712 10715 10713 10710 10708 10707 10706 10713 10709 10718
10574 10579 10583 10587 10590 10594 10597 10600 10603 10606 10609 10612 10615 10618 10621 10623 10627 10631 10635 10639 10643 10646 10649 10653 10657 10659 10663 10666 10670 10674 10677 10681 10685 10688 10692 10695 10693 10690 10685 10684 10686 10691 10700
10549 10553 10558 10561 10565 10569 10573 10577 10580 10583 10586 10589 10592 10595 10597 10600 10604 10607 10612 10615 10619 10624 10628 10631 10634 10637 10640 10643 10646 10651 10655 10658 10662 10664 10670 10672 10672 10667 10665 10666 10665 10667 10674
10521 10526 10530 10535 10538 10542 10546 10550 10555 10559 10562 10565 10568 10572 10574 10576 10580 10584 10589 10593 10595 10599 10604 10608 10611 10613 10615 10619 10623 10627 10630 10633 10636 10638 10644 10647 10648 10648 10647 10646 10646 10648 10652
10488 10492 10497 10502 10508 10513 10518 10522 10527 10532 10536 10539 10543 10546 10551 10552 10554 10559 10564 10569 10572 10574 10578 10581 10585 10589 10590 10593 10600 10603 10605 10608 10607 10612 10618 10621 10623 10623 10624 10624 10626 10624 10631
10456 10460 10465 10471 10477 10482 10488 10494 10498 10503 10507 10511 10515 10519 10523 10528 10528 10534 10539 10543 10547 10550 10554 10555 10557 10560 10563 10565 10571 10576 10580 10578 10580 10585 10591 10594 10596 10598 10597 10599 10599 10602 10605
10424 10429 10434 10439 10444 10451 10457 10462 10468 10472 10478 10482 10486 10490 10494 10498 10502 10505 10508 10513 10518 10522 10527 10529 10529 10530 10535 10537 10539 10545 10549 10549 10551 10556 10561 10564 10567 10569 10569 10569 10572 10576 10581
10392 10397 10402 10406 10412 10418 10423 10428 10434 10440 10444 10449 10455 10459 10461 10466 10470 10472 10478 10484 10489 10495 10498 10498 10499 10500 10505 10508 10510 10511 10513 10518 10524 10526 10531 10536 10536 10537 10536 10539 10544 10549 10552
10360 10363 10367 10372 10378 10383 10388 10394 10398 10403 10409 10414 10420 10425 10428 10431 10435 10441 10444 10446 10450 10459 10465 10468 10469 10472 10474 10475 10477 10480 10482 10486 10491 10497 10501 10503 10503 10505 10506 10508 10510 10514 10522
10323 10329 10333 10336 10341 10347 10353 10358 10363 10368 10373 10378 10383 10388 10393 10395 10400 10405 10407 10412 10415 10420 10427 10433 10438 10440 10443 10445 10447 10448 10451 10454 10459 10466 10470 10473 10473 10474 10477 10475 10477 10477 10486
10288 10292 10297 10301 10307 10313 10316 10322 10327 10332 10336 10342 10347 10352 10357 10361 10364 10367 10371 10374 10379 10384 10386 10394 10399 10404 10409 10411 10413 10413 10414 10418 10424 10428 10435 10440 10442 10443 10446 10444 10447 10447 10454
10255 10257 10261 10265 10269 10275 10282 10286 10291 10294 10299 10303 10308 10313 10318 10323 10327 10330 10334 10338 10343 10346 10348 10353 10357 10365 10371 10375 10379 10379 10380 10383 10385 10390 10397 10402 10407 10409 10413 10414 10416 10419 10424
10225 10228 10231 10233 10234 10235 10240 10247 10252 10255 10258 10263 10269 10274 10278 10283 10289 10292 10293 10296 10303 10306 10309 10312 10316 10321 10325 10331 10338 10342 10344 10345 10349 10354 10359 10364 10367 10372 10376 10381 10382 10384 10391
10196 10198 10200 10203 10204 10205 10208 10211 10215 10220 10224 10226 10230 10234 10238 10243 10247 10251 10252 10254 10258 10264 10267 10271 10274 10278 10284 10286 10291 10297 10303 10306 10308 10313 10319 10325 10329 10333 10338 10342 10345 10348 10353
10167 10169 10171 10173 10174 10175 10175 10177 10180 10183 10186 10188 10192 10195 10197 10200 10204 10208 10212 10213 10215 10218 10223 10227 10230 10234 10238 10243 10247 10251 10256 10260 10264 10269 10274 10280 10285 10289 10298 10304 10308 10311 10314
10138 10140 10142 10143 10144 10146 10147 10148 10148 10149 10151 10152 10154 10154 10158 10162 10163 10166 10169 10172 10175 10176 10177 10180 10183 10186 10190 10195 10200 10204 10208 10213 10219 10222 10227 10233 10239 10243 10252 10261 10265 10269 10273
10112 10113 10115 10115 10116 10118 10119 10119 10119 10119 10119 10120 10121 10121 10120 10121 10124 10126 10127 10130 10134 10136 10138 10139 10139 10142 10145 10148 10153 10157 10161 10166 10171 10178 10181 10185 10190 10195 10201 10210 10217 10220 10227
10091 10091 10092 10092 10092 10092 10093 10093 10092 10091 10089 10088 10088 10088 10088 10087 10088 10088 10089 10089 10090 10093 10096 10098 10099 10101 10103 10105 10108 10111 10113 10117 10121 10127 10133 10138 10142 10146 10153 10161 10164 10170 10179
10071 10071 10070 10069 10068 10068 10066 10065 10063 10061 10059 10058 10056 10056 10055 10054 10054 10054 10053 10052 10052 10054 10056 10059 10061 10061 10063 10066 10068 10071 10072 10076 10080 10084 10088 10092 10096 10100 10106 10112 10117 10124 10130
10051 10050 10048 10047 10045 10043 10041 10039 10037 10035 10033 10031 10029 10026 10025 10023 10023 10023 10022 10020 10019 10019 10020 10019 10021 10022 10023 10025 10028 10031 10034 10037 10040 10043 10047 10052 10054 10058 10064 10069 10074 10080 10087
10032 10031 10028 10025 10022 10020 10018 10016 10014 10011 10008 10006 10003 10000 9997 9995 9993 9992 9991 9989 9987 9986 9986 9986 9988 9987 9987 9989 9991 9993 9997 10000 10004 10008 10011 10013 10016 10019 10023 10028 10034 10040 10047
10014 10010 10007 10004 10002 9999 9997 9993 9990 9988 9984 9981 9978 9976 9972 9967 9964 9963 9961 9960 9959 9957 9957 9956 9956 9957 9957 9956 9958 9960 9962 9966 9970 9973 9978 9980 9983 9986 9989 9994 10000 10005 10010